This demonstration page uses our WeatherBlox Daily Observations layout. Learn more.

Left ArrowRight Arrow

53.62937, 11.41316

Hourly Observations for May 5, 2019

Temp ( °F °C ) Dew Point ( °F °C ) Humidity (%) Winds ( mph kmh ) Pressure ( in mb ) Visibility ( mi km ) Precip ( " mm )
6:50 am 06:50 Mostly Sunny 32 undefined 32 undefined 100 100 VRB 2 4 29.98 1015 7 11 N/A
7:20 am 07:20 Mostly Sunny 34 1 32 undefined 93 93 SW 3 6 29.98 1015 7 11 N/A
7:50 am 07:50 Mostly Sunny 37 3 34 1 87 87 SW 3 6 29.98 1015 7 11 N/A
8:20 am 08:20 Mostly Sunny 39 4 34 1 81 81 SW 3 6 30.00 1016 7 11 N/A
8:50 am 08:50 Mostly Sunny 43 6 32 undefined 66 66 WSW 3 6 30.00 1016 7 11 N/A
9:20 am 09:20 Mostly Sunny 46 8 36 2 66 66 WSW 3 6 30.00 1016 7 11 N/A
9:50 am 09:50 Mostly Sunny 48 9 28 -2 46 46 W 7 11 30.00 1016 7 11 N/A
10:20 am 10:20 Mostly Sunny 48 9 28 -2 46 46 WSW 10 17 30.00 1016 7 11 N/A
10:50 am 10:50 Mostly Sunny 50 10 30 -1 47 47 W 8 13 30.00 1016 30 48 N/A
11:20 am 11:20 Partly Cloudy 50 10 32 undefined 50 50 W 7 11 30.00 1016 30 48 N/A
11:50 am 11:50 Mostly Sunny 50 10 30 -1 47 47 WSW 8 13 30.00 1016 7 11 N/A
12:20 pm 12:20 Mostly Sunny 54 12 32 undefined 44 44 WNW 7 11 30.00 1016 30 48 N/A
12:50 pm 12:50 Partly Cloudy 52 11 30 -1 44 44 VRB 5 7 30.00 1016 30 48 N/A
1:20 pm 13:20 Mostly Sunny 54 12 30 -1 41 41 WSW 8 13 30.00 1016 7 11 N/A
1:50 pm 13:50 Partly Cloudy 52 11 34 1 50 50 W 9 15 30.00 1016 30 48 N/A
2:20 pm 14:20 Partly Cloudy with Light Showers 50 10 34 1 54 54 WNW 7 11 30.00 1016 30 48 N/A
2:50 pm 14:50 Partly Cloudy with Showers Nearby 50 10 32 undefined 50 50 W 10 17 30.00 1016 30 48 N/A
3:20 pm 15:20 Partly Cloudy with Showers Nearby 50 10 36 2 58 58 W 9 15 30.00 1016 30 48 N/A
3:50 pm 15:50 Partly Cloudy with Showers Nearby 52 11 34 1 50 50 W 10 17 30.00 1016 30 48 N/A
4:20 pm 16:20 Partly Cloudy with Showers Nearby 54 12 32 undefined 44 44 WNW 9 15 30.00 1016 30 48 N/A
4:50 pm 16:50 Partly Cloudy with Showers Nearby 52 11 34 1 50 50 W 10 17 30.00 1016 30 48 N/A
5:20 pm 17:20 Mostly Sunny 52 11 32 undefined 47 47 W 9 15 30.00 1016 30 48 N/A
5:50 pm 17:50 Mostly Sunny 52 11 30 -1 44 44 W 12 19 30.00 1016 30 48 N/A
6:20 pm 18:20 Mostly Sunny 50 10 28 -2 43 43 W 9 15 30.00 1016 30 48 N/A
6:50 pm 18:50 Mostly Sunny 50 10 30 -1 47 47 W 9 15 30.00 1016 30 48 N/A
7:20 pm 19:20 Mostly Sunny 50 10 28 -2 43 43 WNW 7 11 30.00 1016 30 48 N/A
7:50 pm 19:50 Mostly Sunny 48 9 28 -2 46 46 W 8 13 30.03 1017 30 48 N/A
8:20 pm 20:20 Mostly Sunny 48 9 28 -2 46 46 W 7 11 30.00 1016 7 11 N/A
8:50 pm 20:50 Mostly Sunny 45 7 30 -1 57 57 W 6 9 30.03 1017 7 11 N/A

Powered by AerisWeather